Other Public Products
Issued by NWS Charleston, SC

Current Version | Previous Version | Text Only | Print | Product List | Glossary Off
Versions: 1 2 3 4 5 6 7 8 9 10 11 12 13 14 15 16 17 18 19 20 21 22 23 24 25 26 27 28 29 30 31 32 33 34 35 36 37 38 39 40 41 42 43 44 45 46 47 48 49 50

007
FPUS82 KCHS 171027
OPUCHS

TEST...KCHS/KSAV Gateway Observations...TEST
National Weather Service Charleston SC
500 AM EST WED JAN 17 2018

NOTE: "fair" indicates few or no clouds below 12,000 feet with no
significant weather and/or obstructions to visibility.

SCZ050-WAZ558-NCZ071-TXZ119-213-PAZ071-DCZ001-FLZ074-172-MI076-
NYZ176-178-MAZ016-IL014-TNZ027-NJZ106-GAZ044-MD014-171100-

...Gateway Observations for Charleston International...

CITY           SKY/WX    TMP DP  RH WIND       PRES   REMARKS
Chas Airport   FAIR      35  34  96 CALM      30.24F
Seattle        CLOUDY    47  35  63 E9        30.08F
Charlotte      LGT RAIN  38  33  82 NW5       30.23S WCI  34
Dallas DFW     CLOUDY    16   5  62 NW6       30.74R WCI   7
Dallas Love    CLOUDY    15   3  59 N5        30.77R WCI   8
Philladelphia  LGT SNOW  34  31  88 N8        30.29R FOG     WCI  27
Wash National  LGT SNOW  29  26  89 NW14      30.36R FOG     WCI  18
Baltimore      LGT SNOW  30  29  96 NW8       30.32R VSB 1   WCI  22
Miami          MOCLDY    63  54  72 N7        30.18S
Detroit        FLURRIES   4   1  88 S6        30.47S WCI  -7
Newark         LGT RAIN  35  33  92 N9        30.25F WCI  28
Laguardia      CLOUDY    35  33  92 NE7       30.25F WCI  29
J F K          LGT RAIN  36  36 100 NE6       30.25F FOG     WCI  31
Boston Logan   CLOUDY    32  28  85 SE5       30.35S WCI  27
Ft. Lauderdale MOCLDY    60  56  86 N8        30.17S
Chicago O`Hare FAIR       8   3  80 W8        30.52F WCI  -4
Chicago Midway FAIR       9   5  84 W6        30.53F WCI  -1
Houston Bush   FAIR      21  11  65 N10       30.71R WCI  10
Houston Hobby  FAIR      22  13  68 N10       30.70S WCI  11
Nashville      CLOUDY     8   1  73 N10       30.61S WCI  -6
Atlanta        LGT SNOW  18  16  92 NW15      30.34F VSB 3/4 WCI   4

$$

GAZ044-118-TXZ119-213-NCZ071-DCZ001-MDZ014-506-PAZ021-071-NJZ106-
NYZ176-178-MAZ106-OHZ011-021-055-MIZ076-KYZ091-ILZ014-INZ047-
MNZ060-ONZ431-171100-

...Gateway Observations for Savannah International...

CITY           SKY/WX    TMP DP  RH WIND       PRES   REMARKS
Savannah Arpt  FAIR      35  33  92 CALM      30.24F
Atlanta        LGT SNOW  18  16  92 NW15      30.34F VSB 3/4 WCI   4
Charlotte      LGT RAIN  38  33  82 NW5       30.23S WCI  34
Dallas DFW     CLOUDY    16   5  62 NW6       30.74R WCI   7
Houston Bush   FAIR      21  11  65 N10       30.71R WCI  10
Wash National  LGT SNOW  29  26  89 NW14      30.36R FOG     WCI  18
Wash Dulles    LGT SNOW  25  22  88 N10       30.35S FOG     WCI  15
Baltimore      LGT SNOW  30  29  96 NW8       30.32R VSB 1   WCI  22
Philadelphia   LGT SNOW  34  31  88 N8        30.29R FOG     WCI  27
Newark         LGT RAIN  35  33  92 N9        30.25F WCI  28
Laguardia      CLOUDY    35  33  92 NE7       30.25F WCI  29
J F K          LGT RAIN  36  36 100 NE6       30.25F FOG     WCI  31
Boston         CLOUDY    32  28  85 SE5       30.35S WCI  27
Pittsburg      FLURRIES   3   0  87 SW3       30.44S
Akron          MOCLDY     1  -4  79 W7        30.45R WCI -12
Cleveland      FLURRIES   5   0  79 SW7       30.50S WCI  -7
Cincinnati     FLURRIES   8   5  87 W6        30.52S WCI  -2
Columbus       FLURRIES   7   4  87 W6        30.53S WCI  -3
Detroit        FLURRIES   4   1  88 S6        30.47S WCI  -7
Chicago O`Hare FAIR       8   3  80 W8        30.52F WCI  -4
Minneapolis    FAIR       0  -4  83 S3        30.43F
Indianapolis   MOCLDY     2   0  91 W8        30.54F WCI -12
Toronto Canada MOCLDY    10   5  79 W8        30.35S WCI  -1

$$




USA.gov is the U.S. government's official web portal to all federal, state and local government web resources and services.